Home > Weather > Dubai > Past weeks

Flag for United Arab Emirates Weather for the Past 2 Weeks in Dubai, Dubai, United Arab Emirates

Now
91 °F

Clear.


Feels Like: 91 °F
Forecast: 84 / 94 °F
Wind: 13 mph from Northwest

Location: Dubai International Airport

Current Time: Apr 29, 2016 at 8:47:05 PM

Latest Report: Apr 29, 2016 at 8:00 PM


Visibility: 10 mi

Pressure: 29.77 "Hg

Humidity: 34%

Dew Point: 59 °F

Location of DubaiLocation

Historic Weather in Dubai — Graph

°F

Dubai Temperature Yesterday

Maximum temperature yesterday: 100 °F (at 11:00 AM)
Minimum temperature yesterday: 82 °F (at 5:00 AM)
Average temperature yesterday: 92 °F

High & Low Weather Summary for the Past Weeks

 TemperatureHumidityPressure
High102 °F (Apr 29, 11:00 AM)83% (Apr 16, 3:00 AM)29.98 "Hg (Apr 16, 3:00 AM)
Low70 °F (Apr 17, 6:00 AM)14% (Apr 24, 11:00 AM)29.71 "Hg (Apr 24, 4:00 AM)
Average82 °F44%29.83 "Hg
* Reported Apr 14 7:00 PM — Apr 29 7:00 PM, Dubai, Weather by CustomWeather, © 2016

Note: Actual official high and low records may vary slightly from our data, if they occured in-between our weather recording intervals... More about our weather records

Advertising

Dubai Weather History for the Previous 24 Hours

Scroll right to see more
 ConditionsComfort  
Time TempWeatherWind HumidityBarometerVisibility
7:00 PM
Fri, Apr 29
93 °FClear.9 mph28%29.74 "Hg10 mi
6:00 PM97 °FSunny.8 mph27%29.74 "Hg10 mi
5:00 PM97 °FPassing clouds.12 mph23%29.74 "HgN/A
4:00 PM99 °FSunny.14 mph22%29.74 "Hg10 mi
3:00 PM99 °FSunny.13 mph27%29.74 "Hg10 mi
2:00 PM102 °FPassing clouds.9 mph24%29.74 "HgN/A
1:00 PM100 °FSunny.13 mph25%29.77 "Hg10 mi
12:00 PM97 °FSunny.13 mph34%29.80 "Hg10 mi
11:00 AM102 °FSunny.8 mph15%29.80 "Hg10 mi
10:00 AM99 °FPassing clouds.9 mph22%29.80 "HgN/A
9:00 AM93 °FSunny.6 mph26%29.80 "Hg10 mi
8:00 AM90 °FPassing clouds.9 mph29%29.77 "HgN/A
7:00 AM86 °FSunny.5 mph38%29.77 "Hg10 mi
6:00 AM86 °FPassing clouds.3 mph38%29.74 "HgN/A
5:00 AM86 °FPassing clouds.5 mph38%29.74 "HgN/A
4:00 AM88 °FClear.6 mph38%29.74 "Hg10 mi
3:00 AM90 °FClear.2 mph33%29.74 "Hg10 mi
2:00 AM90 °FClear.6 mph33%29.74 "Hg10 mi
1:00 AM90 °FClear.7 mph31%29.74 "Hg10 mi
12:00 AM90 °FPassing clouds.3 mph31%29.77 "HgN/A
11:00 PM
Thu, Apr 28
90 °FClear.6 mph31%29.77 "Hg10 mi
10:00 PM91 °FClear.5 mph32%29.77 "Hg10 mi
9:00 PM91 °FPassing clouds.5 mph32%29.74 "HgN/A
8:00 PM97 °FPassing clouds.8 mph20%29.74 "HgN/A
Weather by CustomWeather, © 2016

See weather overviewHow to use our weather pages